This is the latest recevied weather packets stored in our database for station/object N6RDS-8. If no packets are shown the sender has not sent any weather packets the latest 10 day(s).
| Time | Temp. | Humidity | Pressure | Rain* | Wind** | Luminosity | Snow |
|---|---|---|---|---|---|---|---|
| 1777818564 | 17.78° C | 56% | 1020.3 hPa | 0 mm | - | 117 W/m² | - |
| 1777818262 | 17.78° C | 56% | 1020.3 hPa | 0 mm | - | 82 W/m² | - |
| 1777817957 | 17.78° C | 56% | 1020.5 hPa | 0 mm | - | 109 W/m² | - |
| 1777817655 | 17.22° C | 57% | 1020.4 hPa | 0 mm | - | 102 W/m² | - |
| 1777817351 | 17.22° C | 59% | 1020.4 hPa | 0 mm | - | 89 W/m² | - |
| 1777817043 | 16.67° C | 58% | 1020.5 hPa | 0 mm | - | 98 W/m² | - |
| 1777816738 | 16.67° C | 59% | 1020.4 hPa | 0 mm | - | 73 W/m² | - |
| 1777816436 | 16.11° C | 60% | 1020.1 hPa | 0 mm | - | 63 W/m² | - |
| 1777816134 | 16.11° C | 60% | 1020.4 hPa | 0 mm | - | 56 W/m² | - |
| 1777815832 | 16.11° C | 60% | 1020.4 hPa | 0 mm | - | 50 W/m² | - |
| 1777815529 | 16.11° C | 61% | 1020.1 hPa | 0 mm | - | 50 W/m² | - |
| 1777815226 | 15.56° C | 61% | 1020.1 hPa | 0 mm | - | 48 W/m² | - |
| 1777814922 | 15.56° C | 61% | 1019.8 hPa | 0 mm | - | 38 W/m² | - |
| 1777814619 | 15.56° C | 62% | 1020 hPa | 0 mm | - | 34 W/m² | - |
| 1777814316 | 15.56° C | 62% | 1019.9 hPa | 0 mm | - | 26 W/m² | - |
| 1777814012 | 15.56° C | 62% | 1019.9 hPa | 0 mm | - | 21 W/m² | - |
| 1777813710 | 15.56° C | 61% | 1019.9 hPa | 0 mm | - | 17 W/m² | - |
| 1777813407 | 15.56° C | 61% | 1019.9 hPa | 0 mm | - | 13 W/m² | - |
| 1777813104 | 15.56° C | 61% | 1019.8 hPa | 0 mm | - | 10 W/m² | - |
| 1777812802 | 15.56° C | 61% | 1019.9 hPa | 0 mm | - | 10 W/m² | - |
| 1777812498 | 15° C | 62% | 1019.8 hPa | 0 mm | - | 7 W/m² | - |
| 1777812196 | 15° C | 62% | 1019.9 hPa | 0 mm | - | 4 W/m² | - |
| 1777811894 | 15° C | 62% | 1019.8 hPa | 0 mm | - | 2 W/m² | - |
| 1777811593 | 15° C | 62% | 1019.8 hPa | 0 mm | - | 1 W/m² | - |
| 1777811288 | 15.56° C | 62% | 1019.9 hPa | 0 mm | - | 1 W/m² | - |
* Rain latest hour (hover to see other rain measurements)
** Current wind speed in m/s (hover to see current wind gust speed)